This demonstration page uses our WeatherBlox Daily Observations layout. Learn more.

Left ArrowRight Arrow

34.16533, -84.80231

Hourly Observations for July 6, 2020

Temp ( °F °C ) Dew Point ( °F °C ) Humidity (%) Winds ( mph kmh ) Pressure ( in mb ) Visibility ( mi km ) Precip ( " mm )
12:53 am 00:53 Mostly Clear 73 22.8 69 20.6 87 87 Calm 29.93 1014 10 16 0.00 0.00
1:53 am 01:53 Mostly Clear 76 24.4 67 19.4 74 74 ESE 3 6 29.93 1014 10 16 0.00 0.00
2:53 am 02:53 Clear 73 22.8 67 19.4 81 81 E 3 6 29.92 1013 10 16 0.00 0.00
3:53 am 03:53 Clear 71 21.7 67 19.4 87 87 Calm 29.92 1013 10 16 0.00 0.00
4:53 am 04:53 Clear 70 21.1 67 19.4 90 90 Calm 29.93 1014 10 16 0.00 0.00
5:53 am 05:53 Clear 71 21.7 67 19.4 87 87 Calm 29.95 1014 10 16 0.00 0.00
6:53 am 06:53 Sunny 70 21.1 67 19.4 90 90 Calm 29.96 1015 9 14 0.00 0.00
7:38 am 07:38 Mostly Cloudy 74 23.3 69 20.6 85 85 Calm 29.99 1016 10 16 0.00 0.00
7:53 am 07:53 Cloudy 74 23.3 69 20.6 85 85 Calm 29.99 1016 10 16 0.00 0.00
8:18 am 08:18 Partly Cloudy 77 25 70 21.1 79 79 Calm 30.00 1016 10 16 0.00 0.00
8:53 am 08:53 Partly Cloudy 78 25.6 71 21.7 79 79 VRB 3 6 30.00 1016 10 16 0.00 0.00
9:31 am 09:31 Mostly Cloudy 79 26.1 71 21.7 77 77 VRB 6 9 30.01 1016 10 16 0.00 0.00
9:53 am 09:53 Partly Cloudy 80 26.7 70 21.1 71 71 E 8 13 30.00 1016 10 16 0.00 0.00
10:08 am 10:08 Mostly Cloudy 80 26.7 70 21.1 71 71 ESE 7 11 30.01 1016 10 16 0.00 0.00
10:17 am 10:17 Mostly Cloudy 79 26.1 70 21.1 74 74 VRB 6 9 30.02 1016 10 16 0.00 0.00
10:53 am 10:53 Mostly Cloudy 80 26.7 70 21.1 71 71 VRB 5 7 30.00 1016 10 16 0.00 0.00
11:06 am 11:06 Cloudy 82 27.8 70 21.1 67 67 VRB 3 6 30.01 1016 10 16 0.00 0.00
11:53 am 11:53 Cloudy 82 27.8 69 20.6 65 65 VRB 3 6 30.00 1016 10 16 0.00 0.00
12:53 pm 12:53 Cloudy 83 28.3 70 21.1 65 65 NE 7 11 30.00 1016 10 16 0.00 0.00
1:53 pm 13:53 Cloudy 80 26.7 71 21.7 74 74 SSE 6 9 29.99 1016 10 16 0.00 0.00
2:21 pm 14:21 Cloudy 82 27.8 71 21.7 69 69 NE 7 11 29.98 1015 10 16 0.00 0.00
2:36 pm 14:36 Cloudy with Light Rain 77 25 71 21.7 82 82 Calm 29.99 1016 3 4 0.06 1.52
2:39 pm 14:39 Cloudy with Light Rain 77 25 72 22.2 85 85 Calm 29.99 1016 5 8 0.06 1.52
2:53 pm 14:53 Mostly Cloudy with Light Rain 79 26.1 74 23.3 85 85 ESE 3 6 29.98 1015 10 16 0.06 1.52
3:53 pm 15:53 Mostly Sunny 82 27.8 71 21.7 69 69 ENE 5 7 29.96 1014 10 16 0.00 0.00
4:53 pm 16:53 Mostly Cloudy 78 25.6 71 21.7 79 79 Calm 29.95 1014 10 16 0.00 0.00
5:53 pm 17:53 Sunny 80 26.7 71 21.7 74 74 ENE 5 7 29.94 1014 10 16 0.00 0.00
6:53 pm 18:53 Partly Cloudy 82 27.8 71 21.7 69 69 E 9 15 29.94 1014 10 16 0.00 0.00
7:53 pm 19:53 Mostly Sunny 80 26.7 69 20.6 69 69 SE 10 17 29.94 1014 10 16 0.00 0.00
8:53 pm 20:53 Mostly Cloudy 78 25.6 69 20.6 74 74 VRB 6 9 29.95 1014 10 16 0.00 0.00
9:53 pm 21:53 Cloudy 77 25 69 20.6 77 77 E 6 9 29.97 1015 10 16 0.00 0.00
10:44 pm 22:44 Cloudy 77 25 69 20.6 77 77 E 5 7 29.99 1016 10 16 0.00 0.00
10:53 pm 22:53 Cloudy 77 25 69 20.6 77 77 ESE 5 7 29.98 1015 10 16 0.00 0.00
11:53 pm 23:53 Cloudy 77 25 70 21.1 79 79 ESE 5 7 29.98 1015 10 16 0.00 0.00

Powered by AerisWeather